CW8428 Weather Reports


time (UTC)temp
F
wind
direction
speed
knots
gust
knots
rain 1hr
in
rain 24hr
in
rain mn
in
humidity
%
barometer
mb
20260505004625 63 134 6.1 8.7 0.00 0.00 0.00 42 1007.0
20260505003614 63 123 3.5 7.8 0.00 0.00 0.00 44 1007.0
20260505002622 63 150 6.1 8.7 0.00 0.00 0.00 44 1007.1
20260505001616 63 134 3.5 6.1 0.00 0.00 0.00 44 1007.3
20260505000624 63 152 3.5 7.0 0.00 0.00 0.00 44 1007.5
20260504235643 63 153 4.3 11.3 0.00 0.00 0.00 44 1007.7
20260504234631 63 142 8.7 11.3 0.00 0.00 0.00 42 1007.6
20260504233619 63 102 7.8 16.5 0.00 0.00 0.00 41 1007.6
20260504232650 64 132 7.8 13.9 0.00 0.00 0.00 38 1007.6
20260504231616 65 123 9.6 16.5 0.00 0.00 0.00 36 1007.4
20260504230622 65 159 12.2 16.5 0.00 0.00 0.00 37 1007.5
20260504225622 64 138 8.7 13.9 0.00 0.00 0.00 39 1007.4
20260504224617 65 142 7.8 11.3 0.00 0.00 0.00 36 1007.3
20260504223628 65 134 6.1 10.4 0.00 0.00 0.00 34 1007.1
20260504222618 65 157 7.8 16.5 0.00 0.00 0.00 35 1007.1
20260504221627 66 175 12.2 16.5 0.00 0.00 0.00 34 1007.3
20260504220641 66 32 1.7 13.9 0.00 0.00 0.00 31 1007.1
20260504215624 66 349 11.3 20.0 0.00 0.00 0.00 32 1007.1
20260504214614 67 355 10.4 15.6 0.00 0.00 0.00 30 1007.4
20260504213624 68 319 9.6 15.6 0.00 0.00 0.00 29 1007.6
20260504212619 69 33 3.5 11.3 0.00 0.00 0.00 24 1007.4
20260504211630 69 348 11.3 16.5 0.00 0.00 0.00 24 1007.5
20260504210638 69 18 7.0 12.2 0.00 0.00 0.00 25 1007.5
20260504205615 69 5 7.0 11.3 0.00 0.00 0.00 27 1007.6
20260504204626 68 5 6.1 11.3 0.00 0.00 0.00 28 1007.7
20260504203614 67 42 2.6 18.2 0.00 0.00 0.00 34 1007.9
20260504202622 68 96 11.3 17.4 0.00 0.00 0.00 30 1007.8
20260504201630 68 295 3.5 7.8 0.00 0.00 0.00 29 1008.0
20260504200624 68 143 2.6 8.7 0.00 0.00 0.00 27 1008.1
20260504195626 69 159 8.7 10.4 0.00 0.00 0.00 29 1007.9
20260504194615 69 162 7.8 12.2 0.00 0.00 0.00 30 1007.9
20260504193644 70 157 4.3 13.9 0.00 0.00 0.00 28 1008.0
20260504192618 72 244 3.5 7.0 0.00 0.00 0.00 23 1007.9
20260504191628 71 143 4.3 7.8 0.00 0.00 0.00 24 1008.0
20260504190619 71 54 1.7 7.0 0.00 0.00 0.00 25 1008.3
20260504185619 71 344 3.5 7.0 0.00 0.00 0.00 24 1008.3
20260504184652 70 269 0.9 7.8 0.00 0.00 0.00 27 1008.4
20260504183622 70 270 2.6 7.8 0.00 0.00 0.00 28 1008.5
20260504182613 70 206 5.2 10.4 0.00 0.00 0.00 28 1008.7
20260504181623 70 194 3.5 7.0 0.00 0.00 0.00 30 1008.8
20260504180624 69 234 1.7 8.7 0.00 0.00 0.00 32 1009.0
20260504175626 69 274 4.3 7.0 0.00 0.00 0.00 36 1009.2
20260504174614 68 253 2.6 6.1 0.00 0.00 0.00 33 1009.3
20260504173642 67 263 2.6 6.1 0.00 0.00 0.00 34 1009.4
20260504172614 65 231 2.6 6.1 0.00 0.00 0.00 35 1009.6
20260504171641 64 263 0.9 4.3 0.00 0.00 0.00 36 1009.7
20260504170628 63 309 2.6 4.3 0.00 0.00 0.00 35 1009.8
20260504150625 51 224 0.0 0.0 0.00 0.00 0.00 49 1011.0
20260504140651 43 218 0.9 1.7 0.00 0.00 0.00 68 1011.6
20260504130626 40 114 0.0 1.7 0.00 0.00 0.00 69 1011.7
20260504110627 43 279 0.9 3.5 0.00 0.00 0.00 64 1011.2
20260504081615 44 275 1.7 2.6 0.00 0.00 0.00 59 1011.1
20260504080624 44 275 0.0 1.7 0.00 0.00 0.00 60 1011.1
20260504050613 55 126 0.0 1.7 0.00 0.00 0.00 40 1011.0
20260504045634 55 126 0.0 1.7 0.00 0.00 0.00 39 1011.1
20260504044620 56 126 1.7 1.7 0.00 0.00 0.00 39 1011.1
20260504043649 56 126 0.9 3.5 0.00 0.00 0.00 38 1011.1
20260504042621 57 128 0.9 2.6 0.00 0.00 0.00 37 1011.0
20260504041630 57 128 1.7 3.5 0.00 0.00 0.00 37 1011.0
20260504040618 57 131 0.0 1.7 0.00 0.00 0.00 37 1010.9
20260504035616 58 132 1.7 3.5 0.00 0.00 0.00 37 1010.9
20260504034628 59 130 0.9 2.6 0.00 0.00 0.00 36 1010.9
20260504033616 60 133 0.9 2.6 0.00 0.00 0.00 35 1010.8
20260504032618 60 133 0.9 1.7 0.00 0.00 0.00 35 1010.8
20260504031621 61 133 0.9 2.6 0.00 0.00 0.00 33 1010.7
20260504030628 62 132 0.9 2.6 0.00 0.00 0.00 33 1010.6
20260504025624 62 132 1.7 3.5 0.00 0.00 0.00 31 1010.5
20260504024622 63 132 2.6 3.5 0.00 0.00 0.00 31 1010.5
20260504023631 64 216 0.9 3.5 0.00 0.00 0.00 30 1010.4
20260504022642 64 219 2.6 4.3 0.00 0.00 0.00 29 1010.2
20260504021615 66 238 1.7 3.5 0.00 0.00 0.00 25 1010.3
20260504020644 68 355 1.7 5.2 0.00 0.00 0.00 23 1010.3
20260504015644 70 321 1.7 2.6 0.00 0.00 0.00 22 1010.2
20260504014614 70 355 2.6 4.3 0.00 0.00 0.00 19 1010.3
20260504013626 71 342 2.6 5.2 0.00 0.00 0.00 22 1010.4
20260504012634 71 303 3.5 7.0 0.00 0.00 0.00 22 1010.5
20260504011621 71 311 2.6 5.2 0.00 0.00 0.00 24 1010.5
20260504010628 70 304 2.6 6.1 0.00 0.00 0.00 23 1010.7
20260504005613 71 310 3.5 7.0 0.00 0.00 0.00 20 1010.8